Погода в Анавгае

Россия / Камчатский край     56°03′16″N   158°58′08″E
темп.,
°C
ветер,
м/с
пор.,
м/с
влажн.,
%
обл.,
%
осадки,
мм/ч
давл.,
гПа
погр.,
м
4 августа, ср
ср400:00+5сз378898 0.6 1009456
03:00+1сз459413 0.1 1009103
06:000сз349112 0.1 101079
09:00+5сз4765100 0.0 10081083
12:00+8сз685393 0.0 10061554
15:00+8сз6856100 0.1 10061612
18:00+8сз486199 0.1 10051296
21:00+6сз2479100 0.1 1006443
5 августа, чт
чт500:00+4сз3386100 0.1 100748
03:00+2сз338896 0.0 100756
06:00+2зсз349592 0.0 1008295
09:00+3зсз359092 0.1 1007525
12:00+6сз587190 0.3 10051307
15:00+5ссз479197 0.4 1005781
18:00+5зсз468997 0.9 1004726
21:00+4зсз489188 0.1 1003761
6 августа, пт
пт600:00+2зсз479312 0.3 1002177
03:00+1зсз488960 0.0 1002270
06:00+1сз51290100 0.1 1001855
09:00+4зсз6137872 0.1 10001034
12:00+5сз497695 0.1 10001156
15:00+5сз3487100 0.2 1000602
18:00+4ссз2494100 0.4 1002362
21:00+4ссз2397100 0.3 1004579
7 августа, сб
сб700:00+4ссз1294100 0.4 100683
03:00+4ссз129381 0.0 100847
06:00+3ссз2294100 0.1 101073
09:00+4сз2392100 0.0 1012248
12:00+7с2376100 0.1 1013738
15:00+7с2280100 0.1 1014471
18:00+8ссз2378100 0.1 1015441
21:00+6ссз238561 0.0 101786
8 августа, вс
вс800:00+3ссз229224 0.0 101919
03:00+2сз229278 0.0 101920
06:00+2зсз229198 0.0 101922
09:00+8сз236984 0.0 1018391
12:00+12ссз355372 0.0 10161574
15:00+12сз456050 0.1 10161214
18:00+11сз466590 0.1 10171226
21:00+8зсз348463 0.1 1017127